Terug naar catalogus

STARLINK-2701

ActiefCommunicatieVLEO
NORAD 48656·PAYLOAD·🇺🇸 United States

Gelanceerd May 26, 2021 vanaf Cape Canaveral Space Force Station

Loading…

Volgende Passages (komende 24 uur)

TLE

VersSource: CelesTrak SupGP

Epoch: Sep 15, 2026, 01:07 UTC

1 48656C 21044U   26258.04701389  .00050773  00000+0  16324-2 0  2582
2 48656  53.1582 312.6132 0001292  84.9841 181.1587 15.31683029    11

Volg STARLINK-2701 in realtime met AllMySat

Download on the App Store